Regional Weather Roundup
Issued by NWS

Home | Current Version | Previous Version | Text Only | Print | Product List | Glossary On
Versions: 1 2 3 4 5 6 7 8 9 10 11 12 13 14 15 16 17 18 19 20 21 22 23 24 25 26 27 28 29 30 31 32 33 34 35 36 37 38 39 40 41 42 43 44 45 46 47 48 49 50
000
ASUS45 KTFX 281219
RWRMT
MONTANA HOURLY WEATHER ROUNDUP
NATIONAL WEATHER SERVICE GREAT FALLS MT
619 AM MDT SAT MAR 28 2015

NOTE: "FAIR" INDICATES FEW OR NO CLOUDS BELOW 12000 FEET WITH NO
SIGNIFICANT WEATHER AND/OR OBSTRUCTIONS TO VISIBILITY.

* THESE STATIONS ARE NOT UNDER NWS QUALITY CONTROL. THEY DO NOT
   REPORT WEATHER SUCH AS PRECIPITATION OR FOG.

MTZ001>007-043-281300-
WEST OF THE DIVIDE
CITY           SKY/WX    TMP DP  RH WIND       PRES   REMARKS
KALISPELL      LGT RAIN  45  43  93 E5        29.77R
MISSOULA       MOCLDY    41  37  86 CALM      29.80F
BUTTE          PTCLDY    30  27  89 CALM      29.89F
MULLAN PASS    LGT SNOW  34  34 100 VRB7G20   29.89R VSB 2    WCI  28
* ESSEX        N/A       40  39  96 NW1        N/A
* EUREKA APT   CLOUDY    52  45  77 SE12      29.78R
* HAMILTON APT PTCLDY    54  34  47 S13       29.77F
* LIBBY APT    CLOUDY    46  46 100 E3        29.82R
* LINCOLN      N/A       29  28  96 N2         N/A
* LOOKOUT PASS N/A       41  40  96 N6G11      N/A
* POLSON       N/A       46  46 100 S2         N/A
* RONAN APT    MOCLDY    48  43  83 N/A        N/A
* SEELEY LAKE  N/A       32  30  92 E1         N/A
* THOMP F APT  CLOUDY    40  28  62 NE4G9      N/A
$$

MTZ008-052>055-281300-
SOUTHWEST MONTANA
CITY           SKY/WX    TMP DP  RH WIND       PRES   REMARKS
BOZEMAN        CLEAR     39  30  70 SE12      29.86F WCI  32
DILLON         MOCLDY    43  28  56 CALM      29.90F
* W YELLOWSTON CLEAR     27  25  92 N/A        N/A
* THREE FORKS  CLEAR     55  36  49 SW21       N/A
* TWIN BRIDGES MOCLDY    46  28  50 E8         N/A
* BOULDER HILL N/A       42  25  51 S10        N/A
* HOMESTAKE PS N/A       43  27  53 W1G6       N/A
* MONIDA PASS  N/A       41  30  65 SE19       N/A
* RAYNOLDS PAS N/A       37  17  44 SE13       N/A   WCI  29
* WHITEHALL    N/A       45  32  60 W5G11      N/A
* WISE RIVER   N/A       30  28  92 SW5        N/A   WCI  25
$$

MTZ009>010-012-014-046-048-049-054-281300-
EAST SLOPES AND CENTRAL MONTANA
CITY           SKY/WX    TMP DP  RH WIND       PRES   REMARKS
CUT BANK       MOCLDY    48  41  77 W10       29.69F
GREAT FALLS    PTCLDY    52  34  50 S17       29.70F
HELENA         PTCLDY    43  34  71 W3        29.78F
MALMSTROM AFB  CLEAR     55  32  42 SW20      29.71F
* CONRAD       PTCLDY    39  34  82 S5         N/A   WCI  35
* DEARBORN     N/A       48  35  61 S6         N/A
* EAST GLACIER N/A       45  39  80 W22G29     N/A
* MONARCH      N/A       51  28  41 S14        N/A
* PENDROY      N/A       50  34  54 SW8        N/A
* ROGERS PASS  N/A       50  30  46 SE12G20    N/A
* SAINT MARY   N/A       49  39  69 S7G15      N/A
* WHITE SULPH  N/A       47  29  50 W3G12      N/A
$$

MTZ011-013-016-021-035-040-045-047-050-051-281300-
NORTH CENTRAL MONTANA
CITY           SKY/WX    TMP DP  RH WIND       PRES   REMARKS
HAVRE          PTCLDY    43  36  76 SW8       29.66F
LEWISTOWN      PTCLDY    50  34  54 SW15      29.78F
* CHINOOK      CLEAR     37  34  89 CALM      29.67F
* FORT BENTON  CLEAR     41  32  70 CALM      29.70F
* CHESTER      N/A       44  33  65 SE2        N/A
* DENTON       N/A       41  34  76 S1         N/A
* GEYSER       N/A       46  30  54 N2G8       N/A
* JUDITH GAP   N/A       45  32  60 SE8        N/A
* LOMA         N/A       43  34  71 NE3        N/A
$$

MTZ017>020-022>027-061-062-281300-
NORTHEAST MONTANA
CITY           SKY/WX    TMP DP  RH WIND       PRES   REMARKS
GLASGOW        PTCLDY    37  34  89 E13       29.71F WCI  29
GLENDIVE       CLEAR     37  34  89 SW10      29.80F WCI  30
JORDAN         PTCLDY    32  30  92 CALM      29.74F
SIDNEY         CLEAR     34  28  79 CALM      29.79F
WOLF POINT     PTCLDY    36  30  79 NE8       29.75F WCI  30
* BEAVER HILL  N/A       45  34  65 SE13       N/A
* CIRCLE       N/A       46  36  68 N/A        N/A
* LINDSAY DVD  N/A       38  33  82 SE3        N/A
* NAVAJO       N/A       36  33  89 S8         N/A   WCI  30
* PLENTYWOOD A CLEAR     36  34  92 SE10      29.75F WCI  29
* POPLAR APT   CLEAR     36  34  92 NW3       29.76F
* SACO         N/A       37  34  89 NE11       N/A   WCI  29
$$

MTZ028>042-056>058-281300-
SOUTHCENTRAL AND SOUTHEAST MONTANA
CITY           SKY/WX    TMP DP  RH WIND       PRES   REMARKS
BAKER          CLEAR     34  30  85 SE5       29.84F WCI  29
BILLINGS       CLEAR     52  32  47 SW15      29.83F
LIVINGSTON     CLEAR     57  30  36 SW32G44   29.84F
MILES CITY     CLEAR     41  30  65 SE9       29.80F
* BIG TIMBER A CLEAR     54  30  40 W8        29.86F
* FORSYTH APT  CLEAR     39  30  70 CALM      29.80F
* LAUREL APT   CLEAR     52  30  43 SW5        N/A
* ROUNDUP APT  CLEAR     43  27  53 S9         N/A
* ALZADA       N/A       38  31  76 E4         N/A
* HYSHAM       N/A       52  26  36 W5         N/A
* LAME DEER    N/A       55  28  35 SW4        N/A
* REED POINT   N/A       34  31  89 W1         N/A
* ROSCOE HILL  N/A       58  18  21 S6G21      N/A
$$

REGIONAL REPORTS...DAKOTAS
CITY           SKY/WX    TMP DP  RH WIND       PRES   REMARKS
WILLISTON      CLEAR     37  34  89 S7        29.81F WCI  32
DICKINSON      CLEAR     36  30  79 S12       29.84F WCI  28
BEACH          FAIR      37  36  96 S13       29.83F WCI  29
CROSBY         CLEAR     36  36 100 S13       29.79F WCI  27
TIOGA          FOG       28  28 100 CALM      29.85F
WATFORD CITY   CLEAR     32  32 100 SE8       29.81F WCI  25
BISMARCK       FOG       28  28 100 SE10      29.97F VSB 1/2  WCI  19
GRAND FORKS    MOCLDY    21  16  81 S10       30.09S WCI  10
FARGO          CLEAR     27  18  69 SE13      30.12R WCI  16
BUFFALO SD     CLEAR     37  32  82 SE6       29.83S WCI  32
RAPID CITY     CLEAR     37  30  76 CALM      29.92S
$$

REGIONAL REPORTS...WYOMING/IDAHO/WASHINGTON
CITY           SKY/WX    TMP DP  RH WIND       PRES   REMARKS
GILLETTE       CLEAR     48  30  50 S7        29.91F
SHERIDAN       CLEAR     52  30  43 W9        29.88F
CODY           CLEAR     55  30  39 SW9       29.97S
YELLOWSTONE LA PTCLDY    25  21  85 CALM      30.14F
SALMON         CLEAR     37  30  76 N3        29.91S
MULLAN PASS    LGT SNOW  34  34 100 VRB7G20   29.89S VSB 2    WCI  28
SAND POINT     LGT RAIN  48  46  93 SW8       29.85R
SPOKANE        CLOUDY    46  45  96 SW28G37   29.89R
$$

REGIONAL REPORTS...ALBERTA
CITY           SKY/WX    TMP DP  RH WIND       PRES   REMARKS
CALGARY        MOCLDY    39  28  65 VRB9      29.58R WCI  33
LETHBRIDGE     MOCLDY    52  34  50 SW14      29.62F
WATERTON GATE  N/A       48  39  71 SW13G23    N/A
CARDSTON       N/A       50  39  66 SW7G18     N/A
MILK RIVER     N/A       50  39  66 NW6        N/A
$$

REGIONAL REPORTS...SASKATCHEWAN
CITY           SKY/WX    TMP DP  RH WIND       PRES   REMARKS
SWIFT CURRENT  CLOUDY    48  37  66 SW15G21   29.58F
REGINA         FAIR      32  32 100 SE20      29.70F WCI  20
VAL MARIE      N/A       32  30  92 S2         N/A
ASSINIBOIA     N/A       39  36  89 SE3        N/A
CORONACH       N/A       36  34  92 SE6        N/A   WCI  31

$$




USA.gov is the U.S. government's official web portal to all federal, state and local government web resources and services.